Regional Weather Roundup
Issued by NWS

Home | Current Version | Previous Version | Text Only | Print | Product List | Glossary On
Versions: 1 2 3 4 5 6 7 8 9 10 11 12 13 14 15 16 17 18 19 20 21 22 23 24 25 26 27
000
ASUS45 KSLC 240010
RWRUT

UTAH REGIONAL WEATHER ROUNDUP
NATIONAL WEATHER SERVICE SALT LAKE CITY UT
600 PM MDT WED APR 23 2014

UTZ001>011-023>025-240100-

NORTHERN UTAH

CITY           SKY/WX    TMP DP  RH WIND       PRES   REMARKS
HILL AFB       MOSUNNY   50  18  28 W7        30.04S
LOGAN          MOSUNNY   49  23  36 SW5       30.02S
OGDEN          SUNNY     50  18  28 SW10      30.03S
PROVO AIRPORT  MOSUNNY   52  16  24 NW15      30.05S
SALT LAKE CITY MOSUNNY   52  18  25 MISG        N/A
VERNAL         PTSUNNY   51  17  26 N20G25    29.94R
WENDOVER       PTSUNNY   55  18  22 SE12      30.00S
HEBER CITY     SUNNY     46  12  25 NW6       30.03S
WEST JORDAN    SUNNY     50  21  32 N9G16     30.06S

$$

UTZ012>022-026-027-240100-

SOUTHERN UTAH

CITY           SKY/WX    TMP DP  RH WIND       PRES   REMARKS
BRYCE CANYON   SUNNY     47  11  23 NW21G29   30.03R
CEDAR CITY     SUNNY     55  12  18 VRB5      29.99F
MILFORD        SUNNY     57  12  17 N13       29.99F
MOAB/CYNLANDS  SUNNY     59   8  13 W17G23    29.91R
PRICE          SUNNY     51   4  14 NW12G23   29.99R
ST GEORGE      CLEAR     72  18  13 W9G16     29.89S

$$

REGIONAL REPORTS     COLORADO/ARIZONA

CITY           SKY/WX    TMP DP  RH WIND       PRES   REMARKS
CRAIG, CO      CLOUDY    48  18  30 W20       29.92R
GRAND JUNCTION PTSUNNY   57   4  12 W18G25    29.89R
RIFLE          CLOUDY    55  18  23 NW21G26   29.87R
MONTROSE       CLOUDY    55  15  20 NW17      29.90R
CORTEZ         SUNNY     57  12  17 W18G26    29.91R
PAGE, AZ       SUNNY     68  12  11 CALM      29.88S
GRAND CANYON   SUNNY     58  13  17 W9G18     30.00R
KINGMAN        SUNNY     71   7   8 N13G21    29.91F
FLAGSTAFF      SUNNY     58   5  12 W12G30    29.99R

$$

REGIONAL REPORTS    NEVADA/IDAHO/WYOMING

CITY           SKY/WX    TMP DP  RH WIND       PRES   REMARKS
LAS VEGAS, NV  MOSUNNY   76  12   8 SW9       29.84S
ELY            SUNNY     53  13  20 VRB5      30.03S
ELKO           MOSUNNY   52  19  27 W12G17    30.01F
POCATELLO, ID  PTSUNNY   50  23  34 SW28      30.00R
BURLEY         PTSUNNY   50  27  40 W14G21    29.99S
EVANSTON, WY   MOSUNNY   38  14  37 W17       30.03R WCI  28
ROCK SPRINGS   MOSUNNY   44   4  19 W23G33    29.96R

$$



USA.gov is the U.S. government's official web portal to all federal, state and local government web resources and services.